カタログに戻る

STARLINK-36815

運用中通信SSO
NORAD 68313·PAYLOAD·🇺🇸 United States

打ち上げ Mar 20, 2026 から Vandenberg Space Force Base

Loading…

次のパス (今後24時間)

TLE

最新Source: CelesTrak SupGP

元期: Sep 15, 2026, 04:16 UTC

1 68313C 26057V   26258.17826389  .00001628  00000+0  50530-4 0  2589
2 68313  97.2852  23.7226 0000944  84.0555 237.6748 15.33439172    18

AllMySatでSTARLINK-36815をリアルタイム追跡

Download on the App Store